Regional Weather Roundup
Issued by NWS

Home | Current Version | Previous Version | Text Only | Print | Product List | Glossary Off
Versions: 1 2 3 4 5 6 7 8 9 10 11 12 13 14 15 16 17 18 19 20 21 22 23 24 25 26 27 28 29 30 31 32 33 34 35 36 37 38 39 40 41 42 43 44 45 46 47 48 49 50

000
ASUS43 KMPX 300910
RWRMN
WEATHER ROUNDUP FOR MINNESOTA
NATIONAL WEATHER SERVICE TWIN CITIES/CHANHASSEN MN
400 AM CDT SAT JUL 30 2016


NOTE: "FAIR" INDICATES FEW OR NO CLOUDS BELOW 12,000 FEET WITH NO
SIGNIFICANT WEATHER AND/OR OBSTRUCTIONS TO VISIBILITY. N/A MEANS
CURRENT SKY AND/OR WEATHER CONDITIONS ARE NOT AVAILABLE.

MNZ060>063-068>070-301000-
   Twin Cities Metro

CITY           SKY/WX    TMP DP  RH WIND       PRES   REMARKS
TWIN CITIES    MOCLDY    69  58  67 N3        30.02S
ST PAUL        CLOUDY    66  59  78 NE6       30.02S
CRYSTAL        CLEAR     60  55  83 CALM      30.01S
BLAINE         PTCLDY    63  61  94 CALM      30.02S
LAKEVILLE      CLOUDY    63  63 100 CALM      30.02S
EDEN PRAIRIE   PTCLDY    63  56  78 N3        30.01S
LAKEVILLE      CLOUDY    63  63 100 CALM      30.02S
SOUTH ST PAUL  CLOUDY    67  57  70 CALM      30.02R
LAKE ELMO      CLOUDY    63  61  94 CALM      30.03F
$$
MNZ001>005-007-008-013>017-022>024-027-028-301000-
   Northwest Minnesota

CITY           SKY/WX    TMP DP  RH WIND       PRES   REMARKS
BEMIDJI        PTCLDY    62  58  87 S6        30.02F
HALLOCK        PTCLDY    57  55  94 SE6       29.96S
ROSEAU         CLEAR     57  52  82 S3        29.98F
WARROAD        CLEAR     59  55  88 SW3       29.99F
THIEF RVR FALL PTCLDY    58  54  86 E5        29.99F
CROOKSTON      CLOUDY    63  59  88 S5        29.98S
FOSSTON        PTCLDY    59  54  82 CALM      30.01S
DETROIT LAKES  CLOUDY    64  63  94 S6        30.02F
MOORHEAD       CLOUDY    66  63  88 S6        29.99S
PARK RAPIDS    CLEAR     62  57  83 SE3       30.02F
MAHNOMEN       CLOUDY    64  62  93 S6        30.00S
$$
MNZ006-009>011-018-025>026-301000-
   North Central Minnesota

CITY           SKY/WX    TMP DP  RH WIND       PRES   REMARKS
BAUDETTE       CLEAR     58  55  90 S3        30.00S
FLAG ISLAND    CLEAR     68  61  77 CALM      29.97S
INTL FALLS     CLEAR     56  53  90 SE3       30.03S
WASKISH        CLEAR     57  55  94 SE3       30.01S
BIG FORK       CLOUDY    54  52  94 CALM      30.05S
LONGVILLE      PTCLDY    55  54  94 CALM      30.04S
GRAND RAPIDS   CLEAR     52  51  97 CALM      30.07F
CRANE LAKE     PTCLDY    48  46  93 CALM      30.07S
ORR            CLEAR     55  48  76 CALM      30.03S
COOK           CLOUDY    48  48 100 CALM      30.06S
WALKER         FAIR      62  54  75 S3        30.03S
$$
MNZ012-019>021-037-301000-
   Northeast Minnesota

CITY           SKY/WX    TMP DP  RH WIND       PRES   REMARKS
DULUTH         CLOUDY    52  49  89 CALM      30.05F
ELY            CLOUDY    46  46 100 CALM      30.07F
HIBBING        CLOUDY    45  45 100 NW3       30.06S FOG
EVELETH        CLOUDY    46  46  97 CALM      30.07F
DULUTH HARBOR  CLOUDY    61  57  88 CALM      30.05S
TWO HARBORS    PTCLDY    52  46  82 CALM      30.04S
SILVER BAY     CLEAR     46  45  93 CALM      30.04F
GRAND MARAIS     N/A     54  50  86 N3        30.06R
G MARAIS ARPRT CLEAR     45  43  93 CALM      30.10S
$$
MNZ029>031-032-039>041-046>048-054>057-064-301000-
   West Central Minnesota

CITY           SKY/WX    TMP DP  RH WIND       PRES   REMARKS
FERGUS FALLS   CLOUDY    64  61  88 S6        30.02S
WHEATON        CLOUDY    64  61  88 SE6       30.02F
MORRIS         CLEAR     59  57  94 SE6       30.02R
ALEXANDRIA     CLEAR     60  56  86 SW3       30.05S
ELBOW LAKE     CLOUDY    63  60  90 E6        30.02F
WADENA         CLEAR     55  54  94 CALM      30.03S
GLENWOOD         N/A     61  57  88 CALM      30.04S
APPLETON       CLEAR     63  57  82 SE3       30.02S
BENSON         CLEAR     57  54  88 CALM      30.03S
ORTONVILLE     PTCLDY    63  55  77 CALM      30.01S
MADISON        PTCLDY    57  55  94 S7        30.02F
WILLMAR        FAIR      61  57  88 CALM      30.05S
$$
MNZ033>034-036-042>043-049>051-058-059-301000-
   Central Minnesota

CITY           SKY/WX    TMP DP  RH WIND       PRES   REMARKS
ST CLOUD       CLEAR     54  54 100 CALM      30.03F
SAUK CENTRE    FAIR      55  54  98 CALM      30.04S
PAYNESVILLE    CLEAR     56  56 100 CALM      30.05R
AITKIN           N/A     54  48  82 CALM      30.04S FOG
PINE RIVER     PTCLDY    57  55  94 CALM      30.07S
BRAINERD       PTCLDY    57  55  93 CALM      30.04F
STAPLES        CLEAR     57  55  94 CALM      30.03F
LONG PRAIRIE   FAIR      57  55  94 CALM      30.04F
LITTLE FALLS   CLEAR     55  54  94 CALM      30.04S
LITCHFIELD     CLEAR     61  61 100 CALM      30.05R
BUFFALO        CLEAR     58  55  87 CALM      30.04S
MAPLE LAKE     CLEAR     57  56  96 CALM      30.04S
HUTCHINSON     CLEAR     54  54 100 CALM      30.04S FOG
$$
MNZ037-044-045-052-053-301000-
   East Central Minnesota

CITY           SKY/WX    TMP DP  RH WIND       PRES   REMARKS
PRINCETON      CLEAR     55  54  94 CALM      30.03S
MORA           CLEAR     54  52  94 CALM      30.05F
CAMBRIDGE      PTCLDY    57  52  82 CALM      30.02S
RUSH CITY      MOCLDY    58  56  91 NE3       30.04S
MOOSE LAKE     CLEAR     50  50 100 CALM      30.04S
HINCKLEY       PTSUNNY   55  55 100 CALM      30.05S
CLOQUET        CLEAR     46  45  93 CALM      30.05F
MCGREGOR       CLEAR     52  50  93 CALM      30.05F
$$
MNZ071>073-080-081-089-090-097-098-301000-
   Southwest Minnesota

CITY           SKY/WX    TMP DP  RH WIND       PRES   REMARKS
MONTEVIDEO     CLEAR     61  55  82 CALM      30.05S
GRANITE FALLS  CLEAR     58  56  95 S3        30.05S
CANBY          PTCLDY    58  55  91 CALM      30.04S
MARSHALL       PTCLDY    58  55  90 CALM      30.04F
REDWOOD FALLS  CLEAR     57  55  93 CALM      30.04R
OLIVIA         CLEAR     55  54  94 CALM      30.03S
PIPESTONE      PTCLDY    61  54  77 NE1       30.05F
WINDOM         MOCLDY    54  52  94 CALM      30.05S
WORTHINGTON    PTCLDY    55  53  93 W3        30.06S
JACKSON        PTCLDY    54  52  94 CALM      30.05F
TRACY          PTCLDY    60  56  88 SW3       30.04F
SLAYTON        PTCLDY    53  51  93 CALM      30.06S
$$
MNZ065>067-074>077-082>085-091>093-301000-
   South Central Minnesota

CITY           SKY/WX    TMP DP  RH WIND       PRES   REMARKS
MANKATO        CLEAR     59  50  72 CALM      30.03S
NEW ULM        CLEAR     52  52 100 CALM      30.03S
ST JAMES       CLOUDY    52  50  93 CALM      30.05R
FAIRMONT       PTCLDY    57  52  82 CALM      30.03S
GLENCOE        CLEAR     56  55  97 CALM      30.03S
FARIBAULT      CLOUDY    63  61  94 CALM      30.03S
OWATONNA       MOCLDY    61  59  94 CALM      30.03S
WASECA         CLOUDY    59  55  88 CALM      30.04S
ALBERT LEA     MOCLDY    61  59  94 CALM      30.03S
$$
MNZ078>079-086>088-094>096-301000-
   Southeast Minnesota

CITY           SKY/WX    TMP DP  RH WIND       PRES   REMARKS
ROCHESTER      CLOUDY    64  63  96 E5        30.04S
RED WING       CLOUDY    63  59  88 CALM      30.01S
STANTON        CLOUDY    63  61  94 CALM      30.01S
DODGE CENTER   PTCLDY    61  57  88 CALM      30.03S
WINONA         PTCLDY    68  64  88 CALM      30.02S
AUSTIN         CLOUDY    63  59  88 CALM      30.02S
PRESTON        CLOUDY    63  61  94 CALM      30.04S FOG
$$
ABBREVIATIONS USED IN REMARKS
   TC - TEMPERATURES IN CELSIUS
  WCI - WIND CHILL INDEX
   HX - HEAT INDEX
  VSB - VISIBILITY
$$




USA.gov is the U.S. government's official web portal to all federal, state and local government web resources and services.